www.pogodaiklimat.ru

Погода и климат >> Архив погоды >> Россия >> Якутия >> Юбилейная


АРХИВ ПОГОДЫ в Юбилейной

Время (UTC), дата Ветер
(напр.,м/с)
 
Видим.   Явления Облачность Т
(С)
Тd
(С)
f
(%)
Тe
(С)
Тes
(С)
Комфортность P
(гПа)
Po
(гПа)
Тmin
(С)
Tmax
(С)
R
(мм)
R24
(мм)
S
(см)
09 13.04 З 2 10 км слаб. снег 10/0
[Ac und]
-10.9 -13.7 80 -15 -15 1010.4 1007.2 -10.6 0.6
12 13.04 З 2 20 км {снег} 8/0
[Ac trans]
-14.0 -16.7 80 -19 -19 1011.2 1008.0
15 13.04 ЮЗ 3 20 км 3/0
[Ac trans]
-17.0 -19.6 80 -24 -24 1011.5 1008.2
18 13.04 Ю 2 20 км ясно -17.3 -19.9 80 -23 -23 1011.5 1008.2
21 13.04 Ю 3 20 км ясно -16.4 -19.0 80 -23 -23 1011.5 1008.2 -18.4 0.0 25
00 14.04 ЮВ 2 20 км ясно -14.7 -18.1 75 -20 -16 1011.4 1008.1
03 14.04 В 1 20 км ясно -10.6 -16.9 60 -13 -6 1011.1 1007.9
06 14.04 В 3 20 км ясно -8.5 -15.6 56 -14 -11 1011.1 1007.9
09 14.04 В 3 20 км 8/0
[Ci fib]
-10.9 -16.2 65 -17 -16 1011.1 1007.9 -8.2
12 14.04 В 2 20 км 3/0
[Ci fib]
-15.5 -18.9 75 -21 -21 1011.4 1008.1
15 14.04 В 2 20 км ясно -17.9 -20.5 80 -23 -23 1011.2 1007.9
18 14.04 ЮЗ 2 20 км ясно -23.6 -26.2 79 -30 -30 1011.2 1007.9
21 14.04 штиль 0 20 км ясно -23.3 -25.8 80 -23 -22 1011.2 1007.9 -24.0 25
00 15.04 ЮВ 1 20 км 6/0
[Ci fib]
-17.2 -19.8 80 -20 -16 1011.1 1007.8
03 15.04 СВ 1 20 км 8/0
[Ci ing]
-11.2 -17.4 60 -13 -8 1010.6 1007.4
06 15.04 В 3 20 км 8/0
[Ci ing]
-9.7 -16.1 60 -15 -13 1010.1 1006.9
09 15.04 СВ 3 10 км слаб. снег 10/0
[Ac und]
-11.0 -13.0 85 -17 -17 1009.3 1006.1 -9.3 0.3
12 15.04 СВ 3 10 км слаб. снег 10/0
[Ac und]
-13.4 -15.4 85 -20 -20 1009.0 1005.8
15 15.04 С 1 10 км слаб. снег 10/0
[Ac und]
-14.0 -16.0 85 -16 -16 1007.3 1004.1
18 15.04 З 3 10 км слаб. снег 10/0
[Ac und]
-14.8 -16.8 85 -21 -21 1006.2 1002.9
21 15.04 З 6 10 км слаб. снег 10/0
[Ac und]
-14.4 -16.4 85 -24 -24 1005.6 1002.4 -15.2 1 26
00 16.04 З 6
{11}
10 км слаб. снег 10/0
[Cs]
-14.2 -17.7 75 -24 -22 1006.1 1002.8
03 16.04 З 7
{12}
20 км в посл. час снег 6/0
[Ci ing]
-11.1 -15.5 70 -20 -19 1006.9 1003.7
06 16.04 З 6 20 км {снег} 3/0
[Ci fib]
-10.4 -15.7 65 -19 -17 1007.6 1004.4
09 16.04 З 3 20 км ясно -11.6 -17.8 60 -18 -17 1009.8 1006.6 -10.1 0.6
12 16.04 Ю 2 20 км ясно -14.4 -19.5 65 -19 -19 1012.0 1008.7
15 16.04 Ю 4 20 км 3/0
[Ci fib]
-17.4 -20.0 80 -26 -26 1012.8 1009.5
18 16.04 Ю 3 20 км ясно -19.2 -21.8 80 -27 -27 1013.0 1009.7
21 16.04 З 1 20 км 4/0
[Ci fib]
-21.7 -24.2 80 -25 -24 1014.7 1011.4 -21.9 26
00 17.04 штиль 0 20 км 6/0
[Ci ing]
-14.0 -18.3 70 -14 -9 1015.3 1012.1
03 17.04 СВ 2 20 км ясно -10.8 -18.1 55 -15 -9 1016.7 1013.5
06 17.04 В 5 20 км ясно -11.2 -18.5 55 -19 -17 1016.7 1013.5
09 17.04 С 3 20 км 8/0
[As trans]
-12.2 -18.4 60 -18 -18 1016.1 1012.8 -10.8
12 17.04 С 3 10 км слаб. снег 10/0
[Ac und]
-14.2 -16.9 80 -21 -21 1015.8 1012.5
15 17.04 С 4 10 км слаб. снег 10/0
[Ac und]
-15.2 -17.2 85 -23 -23 1014.9 1011.6
18 17.04 СЗ 4 10 км слаб. снег 10/0
[Ac und]
-15.2 -17.2 85 -23 -23 1014.8 1011.5
21 17.04 З 4 10 км слаб. снег 10/0
[Ac und]
-15.5 -17.4 85 -23 -23 1015.0 1011.7 -15.5 1 30
00 18.04 З 6
{10}
10 км слаб. снег 10/0
[As op]
-15.8 -19.2 75 -26 -25 1015.0 1011.7 -16.0
03 18.04 З 6 20 км в посл. час снег 8/0
[Ci ing]
-15.6 -19.8 70 -25 -23 1016.0 1012.7
06 18.04 З 5 10 км {снег} 8/0
[Ci fib]
-14.2 -18.5 70 -23 -21 1016.1 1012.8
09 18.04 З 5 20 км ясно -14.9 -18.3 75 -24 -23 1017.5 1014.2 -14.0 0.5
12 18.04 ЮЗ 3 20 км ясно -16.4 -19.8 75 -23 -23 1018.9 1015.6
15 18.04 Ю 3 20 км ясно -17.6 -21.0 75 -25 -25 1018.9 1015.6
18 18.04 ЮЗ 2 20 км ясно -18.9 -21.5 80 -25 -25 1019.1 1015.8
21 18.04 ЮЗ 3 20 км ясно -20.5 -23.1 80 -28 -27 1019.1 1015.7 -20.8 30
00 19.04 ЮЗ 4 20 км ясно -13.0 -16.5 75 -20 -18 1019.0 1016.1
03 19.04 ЮЗ 4 20 км ясно -10.2 -15.5 65 -17 -13 1019.1 1015.9
06 19.04 Ю 4 20 км ясно -9.6 -15.5 62 -16 -14 1019.1 1015.9
09 19.04 Ю 3 20 км ясно -10.4 -14.8 70 -16 -16 1018.8 1015.6 -9.3
12 19.04 Ю 4 20 км 4/0
[Ci fib]
-9.8 -14.5 68 -17 -17 1018.8 1015.6
15 19.04 Ю 4 20 км 3/0
[Ci fib]
-10.5 -14.9 70 -17 -17 1018.6 1015.4
18 19.04 Ю 3 20 км ясно -12.1 -15.6 75 -18 -18 1018.6 1015.4
21 19.04 ЮВ 4 20 км ясно -14.2 -16.9 80 -22 -21 1018.3 1015.0 -14.2 30
00 20.04 ЮВ 3 20 км ясно -12.0 -16.4 70 -18 -14 1017.5 1014.2
03 20.04 Ю 3 20 км ясно -11.2 -15.6 70 -17 -12 1018.2 1015.0

 

Местоположение метеостанции Юбилейная (Якутия, Россия): широта 70.77 долгота 136.20 высота над уровнем моря 24 м.

В архиве по умолчанию представлена погода в Юбилейной за последнюю неделю. Архивные данные за месяц целиком и за предыдущие месяцы, начиная с января 2011 года, Вы можете получить, выбрав интересующий диапазон дат из раскрывающегося списка и нажав кнопку "Ввод!".


*Определитесь, кто Вы:
робот инопланетянин человек

Внимание! Время в таблицах - всемирное. Для получения местного времени необходимо прибавить поправку, которая равна 10 ч.

Смотрите также архив погоды в соседних городах и на ближайших метеорологических станциях:

Погода в Усть-Куйге (Якутия, Россия) (89 км)
Погода в Депутатском (Якутия, Россия) (206 км)
Погода в Тикси (Якутия, Россия) (277 км)
Погода на Мысе Быков (Якутия, Россия) (287 км)
Погода на Мысе Кигилях (Якутия, Россия) (310 км)
Погода в Кюсюре (Якутия, Россия) (323 км)
Погода в Батагае (Якутия, Россия) (353 км)
Погода в Верхоянске (Якутия, Россия) (373 км)
Погода на Столб Острове (Якутия, Россия) (392 км)
Погода в Батагай-Алыте (Якутия, Россия) (403 км)

Пояснения к столбцам:

Ветер - указаны скорость ветра в м/с - средняя за 10 мин, порывы в срок и между сроками (в фигурных скобках) и направление, откуда дует ветер: С - северный, СВ - северо-восточный, В - восточный, ЮВ - юго-восточный, Ю - южный, ЮЗ - юго-западный, З - западный, СЗ - северо-западный.
Видимость - горизонтальная дальность видимости в метрах или километрах. При видимости от 1 до 10 км при отсутствии осадков обычно наблюдается дымка, при ухудшении видимости до 1 км и менее - туман. В сухую погоду видимость может ухудшаться дымом, пылью или мглою.
Явления - указаны атмосферные явления, наблюдавшиеся в срок или в последний час перед сроком; фигурными скобками обозначены явления, наблюдавшиеся между сроками (за 1-3 часа до срока); квадратными скобками обозначены град или гололедные отложения с указанием их диаметра в мм.
Облачность - указаны через наклонную черту общая и нижняя облачность в баллах и высота нижней границы облаков в метрах; квадратными скобками обозначены формы облаков: Ci - перистые, Cs - перисто-слоистые, Cc - перисто-кучевые, Ac - высококучевые, As - высокослоистые, Sc - слоисто-кучевые, Ns - слоисто-дождевые, Cu - кучевые, Cb - кучево-дождевые. Подробнее классификацию облаков см. в Атласе облаков (PDF).
T - Температура воздуха - температура, измеренная на высоте 2 м над землей.
Td - Температура точки росы - температура, при понижении до которой содержащийся в воздухе водяной пар достигнет насыщения.
f - Относительная влажность воздуха - влажноcть воздуха, измеренная на высоте 2 м над землей.
Te - Эффективная температура - температура, которую ощущает одетый по сезону человек в тени. Характеристика душности погоды. При расчете учитывается влияние влажности воздуха и скорости ветра на теплоощущения человека.
Tes - Эффективная температура на солнце - температура, которую ощущает человек, с поправкой на солнечный нагрев. Характеристика знойности погоды. Зависит от высоты солнца над горизонтом, облачности и скорости ветра. Ночью, в пасмурную погоду, а также при ветре 12 м/с и более поправка равна нулю.
P - Атмосферное давление - приведенное к уровню моря атмосферное давление.
Po - Атмосферное давление - измеренное на уровне метеостанции атмосферное давление.
Tmin - Минимальная температура - минимум температуры воздуха на высоте 2 м над землей.
Tmax - Максимальная температура - максимум температуры воздуха на высоте 2 м над землей.
R - Количество осадков - Количество выпавших осадков за период времени, мм. При наведении курсора мыши на число - период времени, за который выпало указанное количество осадков.
R24 - Количество осадков - Количество выпавших осадков за 24 часа, мм.
S - Снежный покров - Высота снежного покрова, см. При наведении курсора мыши на число - состояние снежного покрова и степень покрытия местности в баллах.